Location: Zagreb
(45.8000°N, 16.0000°E)
Time: 03:52:39
(UTC+01:00)

Transit 4A - All Passes

Search period start: 23 January 2022 00:00
Search period end: 02 February 2022 00:00
Orbit: 863 x 981 km, 66.8° (Epoch: 22 January)

Date Brightness Start Highest point End Pass type
(mag) Time Alt. Az. Time Alt. Az. Time Alt. Az.
23 Jan - 05:57:04 10° ESE 05:58:28 11° E 05:59:52 10° E visible
23 Jan - 07:37:38 10° SSW 07:43:35 68° ESE 07:49:46 10° NE daylight
23 Jan - 09:25:14 10° W 09:30:29 29° NW 09:35:54 10° NNE daylight
23 Jan - 11:16:51 10° NW 11:19:09 12° NNW 11:21:28 10° N daylight
23 Jan - 13:06:25 10° N 13:08:42 12° NNE 13:10:59 10° NE daylight
23 Jan - 14:51:58 10° NNW 14:57:25 28° NE 15:02:52 10° E daylight
23 Jan - 16:38:01 10° NW 16:44:25 75° WSW 16:50:48 10° SSE daylight
23 Jan - 18:26:48 10° WNW 18:29:45 14° W 18:32:41 10° SW visible
24 Jan - 06:03:37 10° SE 06:07:21 17° ESE 06:11:10 10° ENE visible
24 Jan - 07:46:49 10° SSW 07:52:51 87° WNW 07:59:08 10° NNE daylight
24 Jan - 09:35:21 10° W 09:40:09 23° NW 09:45:04 10° NNE daylight
24 Jan - 11:27:35 10° NNW 11:29:07 11° N 11:30:40 10° N daylight
24 Jan - 13:15:32 10° N 13:18:37 14° NNE 13:21:43 10° NE daylight
24 Jan - 15:01:07 10° NNW 15:07:00 37° NE 15:12:53 10° ESE daylight
24 Jan - 16:47:26 10° NW 16:53:38 53° WSW 16:59:49 10° S daylight
25 Jan - 06:11:32 10° SSE 06:16:20 25° ESE 06:21:15 10° NE visible
25 Jan - 07:56:12 10° SW 08:02:12 63° NW 08:08:25 10° NNE daylight
25 Jan - 09:45:40 10° WNW 09:49:53 19° NNW 09:54:12 10° NNE daylight
25 Jan - 11:38:08 10° N 11:39:07 10° N 11:40:05 10° N daylight
25 Jan - 13:24:39 10° NNW 13:28:30 16° NNE 13:32:21 10° ENE daylight
25 Jan - 15:10:19 10° NNW 15:16:30 49° NE 15:22:41 10° ESE daylight
25 Jan - 16:56:58 10° NW 17:02:46 37° WSW 17:08:33 10° S daylight
26 Jan - 06:19:56 10° S 06:25:22 37° ESE 06:30:59 10° NE visible
26 Jan - 08:05:49 10° WSW 08:11:37 46° NW 08:17:39 10° NNE daylight
26 Jan - 09:56:09 10° WNW 09:59:42 15° NNW 10:03:19 10° NNE daylight
26 Jan - 11:48:00 10° N 11:49:07 10° N 11:50:13 10° NNE daylight
26 Jan - 13:33:46 10° NNW 13:38:18 20° NNE 13:42:50 10° ENE daylight
26 Jan - 15:19:32 10° NNW 15:25:56 66° NE 15:32:18 10° SE daylight
26 Jan - 17:06:42 10° NW 17:11:50 26° WSW 17:16:58 10° SSW daylight
27 Jan - 06:28:40 10° S 06:34:30 54° ESE 06:40:32 10° NE visible
27 Jan - 08:15:37 10° WSW 08:21:08 35° NW 08:26:51 10° NNE daylight
27 Jan - 10:06:45 10° NW 10:09:34 13° NNW 10:12:27 10° N daylight
27 Jan - 11:57:18 10° N 11:59:06 11° N 12:00:54 10° NNE daylight
27 Jan - 13:42:54 10° NNW 13:48:01 24° NE 13:53:09 10° E daylight
27 Jan - 15:28:50 10° NNW 15:35:16 89° NE 15:41:42 10° SSE daylight
27 Jan - 17:16:45 10° WNW 17:20:50 18° WSW 17:24:53 10° SW visible
28 Jan - 04:55:51 10° SE 04:58:26 13° E 05:01:03 10° ENE visible
28 Jan - 06:37:40 10° SSW 06:43:42 77° ESE 06:49:56 10° NE visible
28 Jan - 08:25:37 10° W 08:30:45 27° NW 08:36:01 10° NNE daylight
28 Jan - 10:17:28 10° NNW 10:19:31 12° NNW 10:21:36 10° N daylight
28 Jan - 12:06:28 10° N 12:09:04 12° NNE 12:11:40 10° NE daylight
28 Jan - 13:52:03 10° NNW 13:57:40 31° NE 14:03:17 10° ESE daylight
28 Jan - 15:38:11 10° NW 15:44:32 67° WSW 15:50:52 10° SSE daylight
28 Jan - 17:27:47 10° W 17:29:44 11° W 17:31:40 10° WSW visible
29 Jan - 05:03:09 10° SSE 05:07:22 20° ESE 05:11:39 10° ENE visible
29 Jan - 06:46:56 10° SW 06:52:59 78° NW 06:59:17 10° NNE visible
29 Jan - 08:35:48 10° W 08:40:26 21° NNW 08:45:10 10° NNE daylight
29 Jan - 10:28:09 10° NNW 10:29:30 11° N 10:30:51 10° N daylight
29 Jan - 12:15:36 10° N 12:18:58 14° NNE 12:22:21 10° NE daylight
29 Jan - 14:01:13 10° NNW 14:07:13 40° NE 14:13:13 10° ESE daylight
29 Jan - 15:47:38 10° NW 15:53:44 47° WSW 15:59:48 10° S daylight
30 Jan - 05:11:16 10° SSE 05:16:21 29° ESE 05:21:35 10° NE visible
30 Jan - 06:56:24 10° SW 07:02:22 56° NW 07:08:33 10° NNE daylight
30 Jan - 08:46:11 10° WNW 08:50:12 17° NNW 08:54:17 10° NNE daylight
30 Jan - 10:38:31 10° N 10:39:30 10° N 10:40:29 10° N daylight
30 Jan - 12:24:43 10° NNW 12:28:49 17° NNE 12:32:56 10° ENE daylight
30 Jan - 14:10:25 10° NNW 14:16:42 54° NE 14:22:58 10° SE daylight
30 Jan - 15:57:14 10° NW 16:02:50 33° WSW 16:08:25 10° S daylight
31 Jan - 05:19:48 10° S 05:25:26 42° ESE 05:31:14 10° NE visible
31 Jan - 07:06:05 10° WSW 07:11:49 42° NW 07:17:46 10° NNE daylight
31 Jan - 08:56:42 10° NW 09:00:02 15° NNW 09:03:25 10° N daylight
31 Jan - 10:48:08 10° N 10:49:30 11° N 10:50:51 10° NNE daylight
31 Jan - 12:33:50 10° NNW 12:38:35 21° NNE 12:43:21 10° E daylight
31 Jan - 14:19:40 10° NNW 14:26:06 73° NE 14:32:30 10° SE daylight
31 Jan - 16:07:02 10° WNW 16:11:52 23° WSW 16:16:41 10° SSW daylight
01 Feb - 05:28:39 10° SSW 05:34:35 61° ESE 05:40:44 10° NE visible
01 Feb - 07:15:57 10° WSW 07:21:22 32° NW 07:26:58 10° NNE daylight
01 Feb - 09:07:21 10° NW 09:09:56 13° NNW 09:12:33 10° N daylight
01 Feb - 10:57:24 10° N 10:59:29 12° NNE 11:01:34 10° NNE daylight
01 Feb - 12:42:58 10° NNW 12:48:17 27° NE 12:53:36 10° E daylight
01 Feb - 14:28:58 10° NW 14:35:25 82° WSW 14:41:49 10° SSE daylight
01 Feb - 16:17:19 10° WNW 16:20:50 15° WSW 16:24:21 10° SW daylight
